Torna al catalogo

COSMOS 1894

AttivoMilitareGEO
NORAD 18443·PAYLOAD·🇷🇺 Russia

Lanciato Oct 28, 1987 da Baikonur Cosmodrome

Loading…

TLE

AggiornatoSource: Space-Track

Epoca: Sep 14, 2026, 01:38 UTC

1 18443U 87091A   26257.06872338 -.00000277  00000-0  00000-0 0  9991
2 18443  10.6314 324.9954 0002819  17.9647 357.3082  1.00225153121716

Traccia COSMOS 1894 in tempo reale con AllMySat

Download on the App Store